Ogden, UT

1:03 PM MST on December 11, 2017 (GMT -0700)
Ogden-Hinckley

Weather History for KOGD - July, 2013

Change the Weather History Date:

Wednesday, July 24, 2013

  Actual Average Record
Temperature  
Mean Temperature 80 °F -  
Max Temperature 93 °F 90 °F 106 °F (1931)
Min Temperature 68 °F 59 °F 49 °F (1954)
Cooling Degree Days 16    
Growing Degree Days 30 (Base 50)    
Moisture  
Dew Point 37 °F    
Average Humidity 20    
Maximum Humidity 33    
Minimum Humidity 12    
Precipitation  
Precipitation 0.00 in - - ()
Sea Level Pressure  
Sea Level Pressure 29.83 in    
Wind  
Wind Speed 7 mph (South)    
Max Wind Speed 10 mph    
Max Gust Speed -    
Visibility 10 miles    
Events      
Averages and records for this station are not official NWS values.
T = Trace of Precipitation, MM = Missing Value Source: NWS Daily Summary

Daily Weather History Graph

Daily Weather History Graph

Search for Another Location

Airport or City:

Trip Planner

Search our weather history database for the weather conditions in past years. The results will help you decide how hot, cold, wet, or windy it might be!

Date:

Astronomy

Jul. 24, 2013 Rise Set
Actual Time 6:16 AM MDT 8:52 PM MDT
Civil Twilight 5:44 AM MDT 9:24 PM MDT
Nautical Twilight 5:04 AM MDT 10:03 PM MDT
Astronomical Twilight 4:19 AM MDT 10:48 PM MDT
Moon 9:58 PM MDT (7/24) 8:42 AM MDT (7/24)
Length of Visible Light 15h 39m
Length of Day
14h 36m
Waning Gibbous, 94% of the Moon is Illuminated
Jul 24
Waning Gibbous
Jul 29
Last Quarter
Aug 6
New
Aug 14
First Quarter
Aug 20
Full

Hourly Weather History & Observations

Time (MDT) Temp. Dew Point Humidity Pressure Visibility Wind Dir Wind Speed Gust Speed Precip Events Conditions
12:53 AM 82.0 °F 25.0 °F 12% 29.83 in 10.0 mi SSE 9.2 mph - N/A   Clear
1:53 AM 79.0 °F 28.0 °F 15% 29.82 in 10.0 mi South 9.2 mph - N/A   Clear
2:53 AM 75.0 °F 28.0 °F 18% 29.82 in 10.0 mi SSE 4.6 mph - N/A   Clear
3:53 AM 70.0 °F 28.9 °F 22% 29.82 in 10.0 mi SSW 4.6 mph - N/A   Clear
4:53 AM 70.0 °F 30.0 °F 23% 29.83 in 10.0 mi South 8.1 mph - N/A   Clear
5:53 AM 69.1 °F 28.9 °F 22% 29.84 in 10.0 mi South 10.4 mph - N/A   Clear
6:53 AM 68.0 °F 30.0 °F 24% 29.85 in 10.0 mi South 6.9 mph - N/A   Clear
7:53 AM 72.0 °F 30.9 °F 22% 29.86 in 10.0 mi SSE 8.1 mph - N/A   Clear
8:53 AM 75.9 °F 33.1 °F 21% 29.87 in 10.0 mi South 4.6 mph - N/A   Clear
9:53 AM 77.0 °F 36.0 °F 23% 29.88 in 10.0 mi South 3.5 mph - N/A   Clear
10:53 AM 84.0 °F 41.0 °F 22% 29.87 in 10.0 mi SE 5.8 mph - N/A   Clear
11:53 AM 86.0 °F 42.1 °F 21% 29.86 in 10.0 mi SE 9.2 mph - N/A   Clear
12:53 PM 89.1 °F 42.1 °F 19% 29.85 in 10.0 mi Calm Calm - N/A   Clear
1:53 PM 91.0 °F 39.9 °F 17% 29.85 in 10.0 mi Variable 6.9 mph - N/A   Clear
2:53 PM 91.9 °F 42.1 °F 18% 29.83 in 10.0 mi South 8.1 mph - N/A   Clear
3:53 PM 91.9 °F 43.0 °F 18% 29.83 in 10.0 mi Variable 4.6 mph - N/A   Clear
4:53 PM 93.0 °F 41.0 °F 16% 29.81 in 10.0 mi WNW 8.1 mph - N/A   Clear
5:53 PM 93.0 °F 36.0 °F 13% 29.80 in 10.0 mi West 5.8 mph - N/A   Clear
6:53 PM 91.9 °F 37.0 °F 15% 29.80 in 10.0 mi WSW 4.6 mph - N/A   Clear
7:53 PM 88.0 °F 35.1 °F 15% 29.79 in 10.0 mi SSW 3.5 mph - N/A   Clear
8:53 PM 84.0 °F 43.0 °F 24% 29.81 in 10.0 mi West 3.5 mph - N/A   Clear
9:53 PM 82.0 °F 43.0 °F 25% 29.81 in 10.0 mi South 5.8 mph - N/A   Clear
10:53 PM 79.0 °F 46.0 °F 31% 29.83 in 10.0 mi Calm Calm - N/A   Clear
11:53 PM 77.0 °F 46.0 °F 33% 29.82 in 10.0 mi SSE 8.1 mph - N/A   Clear